Boothville, LA

8:28 PM CST on February 24, 2018 (GMT -0600)
Boothville

Weather History for KBVE - September, 2013

Change the Weather History Date:

Monday, September 23, 2013

  Actual Average (KAXO) Record (KAXO)
Temperature  
Mean Temperature 80 °F -  
Max Temperature 86 °F 78 °F 89 °F (2016)
Min Temperature 75 °F 75 °F 73 °F (1999)
Cooling Degree Days 16    
Growing Degree Days 30 (Base 50)    
Moisture  
Dew Point 75 °F    
Average Humidity 84    
Maximum Humidity 94    
Minimum Humidity 70    
Precipitation  
Precipitation 0.09 in - - ()
Sea Level Pressure  
Sea Level Pressure 29.81 in    
Wind  
Wind Speed 4 mph (ESE)    
Max Wind Speed 10 mph    
Max Gust Speed -    
Visibility 9 miles    
Events Rain    
Averages and records for this station are not official NWS values.
T = Trace of Precipitation, MM = Missing Value Source: NWS Daily Summary

Daily Weather History Graph

Daily Weather History Graph

Search for Another Location

Airport or City:

Trip Planner

Search our weather history database for the weather conditions in past years. The results will help you decide how hot, cold, wet, or windy it might be!

Date:

Astronomy

Sep. 23, 2013 Rise Set
Actual Time 6:46 AM CDT 6:52 PM CDT
Civil Twilight 6:22 AM CDT 7:16 PM CDT
Nautical Twilight 5:55 AM CDT 7:43 PM CDT
Astronomical Twilight 5:27 AM CDT 8:11 PM CDT
Moon 9:46 PM CDT (9/23) 10:44 AM CDT (9/23)
Length of Visible Light 12h 53m
Length of Day
12h 05m
Waning Gibbous, 81% of the Moon is Illuminated
Sep 23
Waning Gibbous
Sep 26
Last Quarter
Oct 4
New
Oct 11
First Quarter
Oct 18
Full

Hourly Weather History & Observations

Time (CDT) Temp. Heat Index Dew Point Humidity Pressure Visibility Wind Dir Wind Speed Gust Speed Precip Events Conditions
12:05 AM 78.8 °F - 73.4 °F 83% 29.78 in 10.0 mi East 6.9 mph - N/A   Mostly Cloudy
12:51 AM 78.1 °F - 73.0 °F 84% 29.79 in 10.0 mi East 5.8 mph - N/A   Overcast
1:16 AM 77.0 °F - 73.4 °F 89% 29.78 in 9.0 mi Calm Calm - 0.00 in Rain Light Rain
1:43 AM 77.0 °F - 73.4 °F 89% 29.78 in 10.0 mi Calm Calm - 0.00 in   Overcast
1:51 AM 77.0 °F - 73.9 °F 90% 29.79 in 10.0 mi Calm Calm - 0.00 in   Overcast
2:11 AM 77.0 °F - 73.4 °F 89% 29.79 in 10.0 mi Calm Calm - N/A   Overcast
2:22 AM 77.0 °F - 73.4 °F 89% 29.78 in 10.0 mi Calm Calm - N/A   Overcast
2:51 AM 77.0 °F - 73.9 °F 90% 29.78 in 10.0 mi Calm Calm - N/A   Overcast
3:51 AM 75.9 °F - 73.9 °F 94% 29.79 in 10.0 mi Calm Calm - N/A   Clear
4:51 AM 77.0 °F - 73.9 °F 90% 29.78 in 10.0 mi Calm Calm - N/A   Clear
5:51 AM 78.1 °F - 73.9 °F 87% 29.79 in 10.0 mi ENE 3.5 mph - N/A   Scattered Clouds
6:51 AM 78.1 °F - 73.9 °F 87% 29.81 in 10.0 mi ENE 3.5 mph - N/A   Mostly Cloudy
7:51 AM 79.0 °F - 75.0 °F 88% 29.82 in 9.0 mi ENE 4.6 mph - N/A   Overcast
8:51 AM 81.0 °F 87.3 °F 75.9 °F 85% 29.83 in 10.0 mi East 5.8 mph - N/A   Mostly Cloudy
9:51 AM 82.0 °F 89.4 °F 75.9 °F 82% 29.83 in 10.0 mi East 8.1 mph - N/A   Scattered Clouds
10:51 AM 82.9 °F 90.8 °F 75.9 °F 79% 29.84 in 10.0 mi East 8.1 mph - N/A   Mostly Cloudy
11:10 AM 80.6 °F 86.2 °F 75.2 °F 84% 29.84 in 1.8 mi SE 6.9 mph - 0.02 in Rain Heavy Rain
11:20 AM 82.4 °F 92.4 °F 78.8 °F 89% 29.83 in 3.0 mi SE 4.6 mph - 0.09 in Rain Light Rain
11:51 AM 84.0 °F 93.7 °F 77.0 °F 79% 29.83 in 10.0 mi East 8.1 mph - 0.09 in   Partly Cloudy
12:51 PM 84.9 °F 94.1 °F 75.9 °F 74% 29.82 in 10.0 mi ESE 9.2 mph - N/A   Scattered Clouds
1:51 PM 86.0 °F 96.0 °F 75.9 °F 72% 29.81 in 10.0 mi ESE 8.1 mph - N/A   Mostly Cloudy
2:03 PM 86.0 °F 95.1 °F 75.2 °F 70% 29.80 in 10.0 mi SE 4.6 mph - N/A   Mostly Cloudy
2:51 PM 84.9 °F 94.1 °F 75.9 °F 74% 29.81 in 10.0 mi ESE 6.9 mph - N/A   Overcast
3:51 PM 84.0 °F 92.6 °F 75.9 °F 76% 29.80 in 9.0 mi ESE 8.1 mph - 0.00 in Rain Light Rain
4:51 PM 84.0 °F 92.6 °F 75.9 °F 76% 29.80 in 10.0 mi ESE 10.4 mph - 0.00 in   Partly Cloudy
5:51 PM 82.9 °F 90.8 °F 75.9 °F 79% 29.81 in 10.0 mi ESE 9.2 mph - N/A   Partly Cloudy
6:51 PM 82.0 °F 89.4 °F 75.9 °F 82% 29.81 in 10.0 mi ESE 5.8 mph - N/A   Partly Cloudy
7:51 PM 82.0 °F 90.2 °F 77.0 °F 85% 29.82 in 10.0 mi ESE 3.5 mph - N/A   Partly Cloudy
8:51 PM 81.0 °F 87.9 °F 77.0 °F 88% 29.84 in 10.0 mi ESE 3.5 mph - N/A   Clear
9:51 PM 81.0 °F 88.6 °F 78.1 °F 91% 29.85 in 10.0 mi ESE 4.6 mph - N/A   Clear
10:51 PM 81.0 °F 88.6 °F 78.1 °F 91% 29.86 in 10.0 mi SE 4.6 mph - N/A   Clear
11:51 PM 81.0 °F 89.2 °F 79.0 °F 94% 29.85 in 10.0 mi SE 4.6 mph - N/A   Partly Cloudy